CW7563 Weather Reports


Display with metric or nautical units.
time (UTC)temp
F
wind
direction
speed
MPH
gust
MPH
rain 1hr
in
rain 24hr
in
rain mn
in
humidity
%
barometer
mb
20260510220806 68 234 3.0 12.0 0.00 0.00 0.00 53 1018.7
20260510220307 68 307 3.0 8.0 0.00 0.00 0.00 51 1018.6
20260510215807 69 272 3.0 9.0 0.00 0.00 0.00 50 1018.6
20260510215307 69 224 5.0 9.0 0.00 0.00 0.00 50 1018.6
20260510214806 70 307 5.0 9.0 0.00 0.00 0.00 49 1018.6
20260510214307 68 244 4.0 9.0 0.00 0.00 0.00 52 1018.6
20260510213806 68 134 1.0 6.0 0.00 0.00 0.00 52 1018.6
20260510213306 68 348 5.0 9.0 0.00 0.00 0.00 52 1018.8
20260510212807 69 314 5.0 12.0 0.00 0.00 0.00 52 1018.8
20260510212307 68 288 2.0 7.0 0.00 0.00 0.00 55 1018.8
20260510211806 67 335 3.0 7.0 0.00 0.00 0.00 54 1018.8
20260510211307 67 281 5.0 9.0 0.00 0.00 0.00 53 1018.8
20260510210807 67 338 2.0 7.0 0.00 0.00 0.00 55 1018.7
20260510210307 66 270 5.0 9.0 0.00 0.00 0.00 55 1018.6
20260510205806 66 8 3.0 7.0 0.00 0.00 0.00 55 1018.7
20260510205307 66 290 2.0 8.0 0.00 0.00 0.00 58 1018.7
20260510204807 66 267 3.0 7.0 0.00 0.00 0.00 56 1018.7
20260510204306 65 303 3.0 7.0 0.00 0.00 0.00 56 1018.8
20260510203806 66 273 5.0 12.0 0.00 0.00 0.00 58 1018.8
20260510203306 66 212 2.0 6.0 0.00 0.00 0.00 57 1018.9
20260510202806 66 286 2.0 10.0 0.00 0.00 0.00 58 1018.9
20260510202307 66 237 2.0 7.0 0.00 0.00 0.00 57 1018.8
20260510201807 66 247 2.0 5.0 0.00 0.00 0.00 57 1018.8
20260510201307 66 323 1.0 3.0 0.00 0.00 0.00 57 1018.7
20260510200806 66 283 3.0 8.0 0.00 0.00 0.00 56 1018.8
20260510200306 66 185 4.0 8.0 0.00 0.00 0.00 56 1018.6
20260510195807 66 134 1.0 5.0 0.00 0.00 0.00 57 1018.6
20260510195307 65 323 3.0 8.0 0.00 0.00 0.00 58 1018.7
20260510194807 64 293 3.0 7.0 0.00 0.00 0.00 58 1018.8
20260510194307 64 311 4.0 7.0 0.00 0.00 0.00 59 1018.9
20260510193807 63 335 2.0 8.0 0.00 0.00 0.00 60 1018.9
20260510193306 63 289 3.0 7.0 0.00 0.00 0.00 60 1018.9
20260510192806 63 324 3.0 8.0 0.00 0.00 0.00 60 1018.8
20260510191806 63 325 1.0 3.0 0.00 0.00 0.00 60 1018.7
20260510191306 63 267 3.0 8.0 0.00 0.00 0.00 59 1018.8
20260510190806 63 313 3.0 8.0 0.00 0.00 0.00 60 1018.8
20260510190306 63 297 3.0 10.0 0.00 0.00 0.00 62 1018.8
20260510185807 63 245 3.0 7.0 0.00 0.00 0.00 63 1018.9
20260510185307 63 286 3.0 8.0 0.00 0.00 0.00 61 1018.6
20260510184807 64 339 6.0 9.0 0.00 0.00 0.00 59 1018.6
20260510184306 65 348 2.0 6.0 0.00 0.00 0.00 60 1018.6
20260510183806 65 239 3.0 10.0 0.00 0.00 0.00 60 1018.6
20260510183306 65 279 5.0 12.0 0.00 0.00 0.00 59 1018.6
20260510182806 63 346 2.0 9.0 0.00 0.00 0.00 61 1018.5
20260510182306 64 282 4.0 9.0 0.00 0.00 0.00 60 1018.6
20260510181806 64 328 6.0 12.0 0.00 0.00 0.00 60 1018.6
20260510181306 64 286 3.0 7.0 0.00 0.00 0.00 61 1018.5
20260510180806 63 279 3.0 9.0 0.00 0.00 0.00 62 1018.3
20260510180307 63 325 3.0 8.0 0.00 0.00 0.00 64 1018.3
20260510175306 63 23 3.0 8.0 0.00 0.00 0.00 64 1018.3
20260510174806 62 40 3.0 7.0 0.00 0.00 0.00 64 1018.4
20260510174307 62 272 1.0 6.0 0.00 0.00 0.00 67 1018.4
20260510173806 62 191 2.0 8.0 0.00 0.00 0.00 67 1018.5
20260510173306 62 238 3.0 7.0 0.00 0.00 0.00 68 1018.5
20260510172307 61 235 3.0 7.0 0.00 0.00 0.00 69 1018.5
20260510170807 60 284 3.0 8.0 0.00 0.00 0.00 71 1018.3
20260510170306 60 353 1.0 5.0 0.00 0.00 0.00 72 1018.2
20260510165806 59 163 3.0 9.0 0.00 0.00 0.00 73 1018.1
20260510165307 59 212 3.0 5.0 0.00 0.00 0.00 72 1018.1
20260510164306 58 188 3.0 9.0 0.00 0.00 0.00 73 1018.1
20260510162806 58 297 2.0 3.0 0.00 0.00 0.00 74 1018.3
20260510162306 58 261 3.0 7.0 0.00 0.00 0.00 75 1018.3
20260510161306 57 295 2.0 3.0 0.00 0.00 0.00 76 1018.2
20260510160806 56 223 1.0 3.0 0.00 0.00 0.00 77 1018.1
20260510160306 56 187 2.0 3.0 0.00 0.00 0.00 76 1018.2
20260510155806 56 228 1.0 5.0 0.00 0.00 0.00 77 1018.1
20260510154806 56 292 3.0 6.0 0.00 0.00 0.00 77 1018.2
20260510154306 56 289 1.0 3.0 0.00 0.00 0.00 79 1018.2
20260510153806 56 232 2.0 3.0 0.00 0.00 0.00 79 1018.0
20260510153306 56 225 2.0 3.0 0.00 0.00 0.00 79 1017.9
20260510152806 55 216 1.0 5.0 0.00 0.00 0.00 80 1017.9
20260510152308 55 231 2.0 3.0 0.00 0.00 0.00 81 1017.8
20260510151806 55 244 0.0 3.0 0.00 0.00 0.00 81 1017.7
20260510151306 55 237 2.0 3.0 0.00 0.00 0.00 82 1017.7
20260510150805 55 239 1.0 2.0 0.00 0.00 0.00 82 1017.6
20260510150306 54 244 1.0 3.0 0.00 0.00 0.00 82 1017.6
20260510145806 55 245 1.0 3.0 0.00 0.00 0.00 82 1017.6
20260510145306 55 297 2.0 5.0 0.00 0.00 0.00 81 1017.9
20260510144806 55 242 2.0 3.0 0.00 0.00 0.00 81 1017.7
20260510144305 55 240 1.0 3.0 0.00 0.00 0.00 81 1017.4
20260510143307 55 323 1.0 6.0 0.00 0.00 0.00 82 1017.5
20260510142806 54 266 1.0 3.0 0.00 0.00 0.00 82 1017.5
20260510141806 54 293 1.0 3.0 0.00 0.00 0.00 83 1017.1
20260510141305 54 297 1.0 2.0 0.00 0.00 0.00 83 1017.1
20260510140806 54 297 0.0 0.0 0.00 0.00 0.00 83 1017.0
20260510135806 54 299 1.0 3.0 0.00 0.00 0.00 84 1016.9
20260510135306 54 233 0.0 3.0 0.00 0.00 0.00 85 1017.0
20260510134306 53 292 0.0 1.0 0.00 0.00 0.00 87 1016.9
20260510133805 53 292 1.0 2.0 0.00 0.00 0.00 87 1016.9
20260510133306 53 292 0.0 2.0 0.00 0.00 0.00 88 1016.8
20260510132806 53 292 2.0 3.0 0.00 0.00 0.00 88 1017.0
20260510132306 52 293 1.0 1.0 0.00 0.00 0.00 87 1016.8
20260510131806 53 293 1.0 2.0 0.00 0.00 0.00 87 1016.8
20260510131305 53 293 1.0 1.0 0.00 0.00 0.00 87 1016.7
20260510130306 53 293 0.0 1.0 0.00 0.00 0.00 87 1016.7
20260510125805 53 293 0.0 2.0 0.00 0.00 0.00 87 1016.7
20260510125307 53 294 1.0 2.0 0.00 0.00 0.00 87 1016.6
20260510124806 53 292 0.0 1.0 0.00 0.00 0.00 86 1017.0
20260510124306 53 292 0.0 1.0 0.00 0.00 0.00 86 1017.0
20260510123806 53 292 1.0 2.0 0.00 0.00 0.00 86 1017.0
20260510123305 53 293 1.0 2.0 0.00 0.00 0.00 85 1017.0
20260510122805 53 293 1.0 2.0 0.00 0.00 0.00 85 1016.8
20260510122306 53 293 1.0 2.0 0.00 0.00 0.00 85 1016.8
20260510121806 54 294 1.0 2.0 0.00 0.00 0.00 84 1016.8
20260510121306 54 223 0.0 1.0 0.00 0.00 0.00 84 1016.8
20260510120806 54 223 0.0 1.0 0.00 0.00 0.00 84 1016.8
20260510120306 54 224 1.0 2.0 0.00 0.00 0.00 84 1016.7
20260510115805 54 224 1.0 3.0 0.00 0.00 0.00 84 1016.7
20260510115307 54 222 1.0 3.0 0.00 0.00 0.00 84 1016.8
20260510114805 54 219 2.0 3.0 0.00 0.00 0.00 84 1016.7
20260510114306 54 245 1.0 3.0 0.00 0.00 0.00 84 1016.5
20260510113805 54 253 2.0 3.0 0.00 0.00 0.00 84 1016.6
20260510113305 55 220 0.0 2.0 0.00 0.00 0.00 84 1016.5
20260510112805 55 220 0.0 3.0 0.00 0.00 0.00 84 1016.4
20260510111805 55 252 2.0 5.0 0.00 0.00 0.00 83 1016.7
20260510111306 55 226 2.0 5.0 0.00 0.00 0.00 83 1016.6
20260510110805 55 245 2.0 3.0 0.00 0.00 0.00 83 1016.5
20260510110306 55 229 2.0 3.0 0.00 0.00 0.00 83 1016.3
20260510105306 56 263 0.0 2.0 0.00 0.00 0.00 82 1016.3
20260510104806 56 263 2.0 3.0 0.00 0.00 0.00 81 1016.3
20260510104306 56 265 2.0 5.0 0.00 0.00 0.00 81 1016.2
20260510103806 56 249 1.0 3.0 0.00 0.00 0.00 82 1016.1
20260510103306 56 272 2.0 3.0 0.00 0.00 0.00 81 1016.1
20260510102805 57 251 1.0 3.0 0.00 0.00 0.00 81 1015.9
20260510102306 57 295 1.0 3.0 0.00 0.00 0.00 81 1015.8
20260510101805 56 289 1.0 3.0 0.00 0.00 0.00 81 1015.8
20260510101305 56 257 1.0 3.0 0.00 0.00 0.00 81 1015.6
20260510100306 57 248 1.0 2.0 0.00 0.00 0.00 81 1015.4
20260510095805 57 247 0.0 2.0 0.00 0.00 0.00 81 1015.3
20260510095306 57 247 1.0 2.0 0.00 0.00 0.00 81 1015.1
20260510094805 57 247 1.0 2.0 0.00 0.00 0.00 80 1014.9
20260510094305 57 247 0.0 1.0 0.00 0.00 0.00 80 1015.0
20260510093806 57 247 0.0 1.0 0.00 0.00 0.00 80 1015.0
20260510093306 57 247 0.0 2.0 0.00 0.00 0.00 80 1015.2
20260510092806 57 247 1.0 2.0 0.00 0.00 0.00 79 1015.3
20260510092307 58 248 1.0 3.0 0.00 0.00 0.00 79 1015.2
20260510091805 58 230 0.0 2.0 0.00 0.00 0.00 78 1015.3
20260510091305 58 249 1.0 3.0 0.00 0.00 0.00 78 1015.2
20260510090305 58 231 2.0 3.0 0.00 0.00 0.00 77 1015.2
20260510085805 57 209 1.0 3.0 0.00 0.00 0.00 78 1015.1
20260510085306 57 198 1.0 3.0 0.00 0.00 0.00 79 1015.1
20260510084305 57 155 0.0 0.0 0.00 0.00 0.00 78 1015.0
20260510083805 57 155 0.0 0.0 0.00 0.00 0.00 77 1014.9
20260510083305 57 155 0.0 0.0 0.00 0.00 0.00 78 1014.9
20260510082805 57 155 0.0 1.0 0.00 0.00 0.00 78 1014.9
20260510081805 57 155 0.0 0.0 0.00 0.00 0.00 77 1014.9
20260510080305 58 155 1.0 3.0 0.00 0.00 0.00 75 1014.8
20260510075805 59 155 2.0 3.0 0.00 0.00 0.00 75 1014.8
20260510074805 59 155 2.0 3.0 0.00 0.00 0.00 74 1014.9
20260510074305 59 155 2.0 3.0 0.00 0.00 0.00 74 1014.8
20260510073804 59 155 2.0 3.0 0.00 0.00 0.00 73 1014.7
20260510073307 60 155 2.0 3.0 0.00 0.00 0.00 73 1014.8
20260510072805 60 155 2.0 3.0 0.00 0.00 0.00 73 1014.8
20260510072306 60 155 1.0 2.0 0.00 0.00 0.00 73 1014.8
20260510071805 60 155 1.0 2.0 0.00 0.00 0.00 73 1014.8
20260510071305 60 155 1.0 3.0 0.00 0.00 0.00 73 1014.8
20260510070827 60 154 1.0 2.0 0.00 0.00 0.00 72 1014.8
20260510070306 60 154 2.0 3.0 0.00 0.00 0.00 71 1014.8
20260510065806 61 286 2.0 3.0 0.00 0.00 0.00 71 1014.8
20260510065306 60 287 1.0 2.0 0.00 0.00 0.00 71 1014.8
20260510064805 60 287 1.0 1.0 0.00 0.00 0.00 71 1014.8
20260510064305 61 287 0.0 2.0 0.00 0.00 0.00 70 1014.7
20260510063804 61 287 0.0 1.0 0.00 0.00 0.00 69 1014.7
20260510063305 62 287 1.0 2.0 0.00 0.00 0.00 69 1014.6
20260510062805 62 287 2.0 2.0 0.00 0.00 0.00 68 1014.6
20260510062307 62 287 0.0 1.0 0.00 0.00 0.00 67 1014.6
20260510061805 63 287 1.0 2.0 0.00 0.00 0.00 66 1014.6
20260510061305 63 287 1.0 1.0 0.00 0.00 0.00 65 1014.6
20260510060805 64 287 1.0 2.0 0.00 0.00 0.00 64 1014.7
20260510060305 64 306 1.0 2.0 0.00 0.00 0.00 64 1014.7
20260510055805 64 313 0.0 1.0 0.00 0.00 0.00 65 1014.6
20260510054805 64 313 1.0 2.0 0.00 0.00 0.00 64 1014.6
20260510054305 64 313 0.0 1.0 0.00 0.00 0.00 64 1014.6
20260510053306 65 313 1.0 1.0 0.00 0.00 0.00 62 1014.5
20260510052804 66 313 1.0 2.0 0.00 0.00 0.00 61 1014.5
20260510052306 66 314 0.0 1.0 0.00 0.00 0.00 60 1014.4
20260510051805 67 314 0.0 1.0 0.00 0.00 0.00 59 1014.4
20260510051304 67 314 0.0 1.0 0.00 0.00 0.00 56 1014.5
20260510050805 67 314 0.0 1.0 0.00 0.00 0.00 57 1014.4
20260510050305 68 314 0.0 1.0 0.00 0.00 0.00 56 1014.4
20260510045805 68 314 0.0 1.0 0.00 0.00 0.00 55 1014.5
20260510045306 68 314 0.0 2.0 0.00 0.00 0.00 55 1014.4
20260510044305 69 313 1.0 3.0 0.00 0.00 0.00 55 1014.3
20260510043804 69 348 0.0 2.0 0.00 0.00 0.00 54 1014.2
20260510043305 69 351 1.0 5.0 0.00 0.00 0.00 53 1014.3
20260510042804 69 345 2.0 3.0 0.00 0.00 0.00 53 1014.2
20260510042307 70 326 1.0 3.0 0.00 0.00 0.00 52 1014.1
20260510041804 70 326 0.0 3.0 0.00 0.00 0.00 52 1014.1
20260510041304 70 304 0.0 3.0 0.00 0.00 0.00 52 1013.8
20260510035804 70 0 0.0 1.0 0.00 0.00 0.00 51 1013.7
20260510035306 71 0 0.0 1.0 0.00 0.00 0.00 49 1013.7
20260510034804 71 0 0.0 1.0 0.00 0.00 0.00 50 1013.6
20260510034305 71 0 1.0 2.0 0.00 0.00 0.00 49 1013.6
20260510033805 72 0 1.0 3.0 0.00 0.00 0.00 48 1013.5
20260510033304 72 330 2.0 3.0 0.00 0.00 0.00 47 1013.5
20260510032804 72 330 2.0 3.0 0.00 0.00 0.00 47 1013.4
20260510032306 72 0 2.0 6.0 0.00 0.00 0.00 47 1013.3
20260510031805 72 9 3.0 5.0 0.00 0.00 0.00 47 1013.2
20260510031305 73 3 2.0 5.0 0.00 0.00 0.00 47 1013.2
20260510030804 73 355 2.0 3.0 0.00 0.00 0.00 46 1013.2
20260510030305 73 342 2.0 5.0 0.00 0.00 0.00 46 1013.2
20260510025804 73 342 2.0 5.0 0.00 0.00 0.00 45 1013.2
20260510024808 74 6 2.0 3.0 0.00 0.00 0.00 45 1013.2
20260510024307 74 337 3.0 5.0 0.00 0.00 0.00 44 1013.1
20260510023307 75 14 2.0 6.0 0.00 0.00 0.00 42 1013.2
20260510022807 76 350 5.0 8.0 0.00 0.00 0.00 42 1013.2
20260510020807 76 19 4.0 8.0 0.00 0.00 0.00 41 1013.2
20260510020308 76 44 2.0 8.0 0.00 0.00 0.00 41 1013.2
20260510015807 76 348 4.0 8.0 0.00 0.00 0.00 40 1013.3
20260510014808 77 45 2.0 5.0 0.00 0.00 0.00 39 1013.4
20260510013807 77 345 4.0 9.0 0.00 0.00 0.00 39 1013.4
20260510013307 77 40 3.0 7.0 0.00 0.00 0.00 37 1013.5
20260510012807 78 9 5.0 8.0 0.00 0.00 0.00 35 1013.5
20260510012307 78 12 3.0 10.0 0.00 0.00 0.00 34 1013.5
20260510011807 78 16 5.0 10.0 0.00 0.00 0.00 33 1013.6
20260510011307 79 358 2.0 3.0 0.00 0.00 0.00 34 1013.6
20260510005807 81 28 1.0 3.0 0.00 0.00 0.00 30 1013.6
20260510005307 79 267 1.0 3.0 0.00 0.00 0.00 30 1013.5
20260510004807 79 317 2.0 6.0 0.00 0.00 0.00 30 1013.6
20260510004307 79 312 2.0 3.0 0.00 0.00 0.00 30 1013.7
20260510003807 79 320 2.0 3.0 0.00 0.00 0.00 30 1013.7
20260510003307 80 273 2.0 6.0 0.00 0.00 0.00 31 1013.7
20260510002807 80 310 1.0 6.0 0.00 0.00 0.00 31 1013.7
20260510002307 80 264 3.0 6.0 0.00 0.00 0.00 32 1013.7
20260510001807 79 328 3.0 12.0 0.00 0.00 0.00 31 1013.9
20260510001307 79 345 2.0 8.0 0.00 0.00 0.00 31 1014.0
20260510000806 79 316 2.0 3.0 0.00 0.00 0.00 30 1014.0
20260510000307 79 5 2.0 3.0 0.00 0.00 0.00 30 1014.1
20260509235807 79 351 2.0 5.0 0.00 0.00 0.00 32 1014.1
20260509235307 79 338 4.0 7.0 0.00 0.00 0.00 33 1014.1
20260509234307 79 294 2.0 8.0 0.00 0.00 0.00 33 1014.1
20260509233307 79 350 3.0 9.0 0.00 0.00 0.00 36 1014.2
20260509232807 79 346 2.0 12.0 0.00 0.00 0.00 36 1014.2
20260509232307 79 344 2.0 10.0 0.00 0.00 0.00 37 1014.3
20260509231808 78 9 6.0 10.0 0.00 0.00 0.00 37 1014.3
20260509231307 79 284 3.0 8.0 0.00 0.00 0.00 37 1014.5
20260509230807 79 2 3.0 6.0 0.00 0.00 0.00 38 1014.5
20260509230307 79 19 3.0 7.0 0.00 0.00 0.00 40 1014.6
20260509225807 77 205 1.0 7.0 0.00 0.00 0.00 43 1014.7
20260509225307 78 259 3.0 9.0 0.00 0.00 0.00 41 1014.7
20260509224306 78 323 3.0 7.0 0.00 0.00 0.00 42 1015.0
20260509223807 77 298 5.0 10.0 0.00 0.00 0.00 45 1015.2
20260509222806 77 290 2.0 8.0 0.00 0.00 0.00 43 1015.5
20260509222307 77 299 4.0 8.0 0.00 0.00 0.00 44 1015.5
20260509221807 76 283 4.0 7.0 0.00 0.00 0.00 46 1015.7